Location: Tel Aviv
(32.0670°N, 34.7670°E)
Time: 04:05:43
(UTC+03:00)

Vanguard 2 - Pass Details

Date: 31 January 2022
Orbit: 552 x 2935 km, 32.9° (Epoch: 26 May)

Event Time Altitude Azimuth Distance (km) Brightness Sun altitude
Rises 18:39:15 0° 256° (WSW) 3,289 12.5 -18.3°
Reaches altitude 10° 18:41:17 10° 256° (WSW) 2,546 11.4 -18.8°
Maximum altitude 18:47:23 86° 168° (SSE) 1,227 8.4 -20.1°
Enters shadow 18:52:24 31° 82° (E) 2,413 9.4 -21.1°
Drops below altitude 10° 18:57:57 10° 81° (E) 4,242 - -22.3°
Sets 19:02:17 0° 81° (E) 5,627 - -23.2°
